GW4050 Weather Reports


Display with metric or nautical units.
time (UTC)temp
F
wind
direction
speed
MPH
gust
MPH
rain 1hr
in
rain 24hr
in
rain mn
in
humidity
%
barometer
mb
20260508080340 50 150 1.0 2.0 0.00 0.00 0.00 79 1016.6
20260508075340 50 0.0 0.0 0.00 0.00 0.00 80 1016.4
20260508074323 49 116 0.0 1.0 0.00 0.00 0.00 81 1016.4
20260508073321 49 0.0 0.0 0.00 0.00 0.00 82 1016.4
20260508072320 48 130 0.0 2.0 0.00 0.00 0.00 82 1016.4
20260508071317 48 131 2.0 4.0 0.00 0.00 0.00 82 1016.3
20260508070317 48 0.0 0.0 0.00 0.00 0.00 83 1016.3
20260508065337 48 133 1.0 3.0 0.00 0.00 0.00 85 1016.2
20260508064320 47 0.0 0.0 0.00 0.00 0.00 86 1016.2
20260508063317 47 0.0 0.0 0.00 0.00 0.00 86 1016.0
20260508062317 47 0.0 0.0 0.00 0.00 0.00 85 1015.9
20260508061317 47 0.0 0.0 0.00 0.00 0.00 84 1015.9
20260508060318 46 0.0 0.0 0.00 0.00 0.00 85 1015.8
20260508055318 46 172 1.0 3.0 0.00 0.00 0.00 86 1015.7
20260508054358 46 0.0 0.0 0.00 0.00 0.00 86 1015.7
20260508053338 45 0.0 0.0 0.00 0.00 0.00 86 1015.6
20260508052318 45 138 0.0 2.0 0.00 0.00 0.00 86 1015.5
20260508051318 45 0.0 0.0 0.00 0.00 0.00 86 1015.4
20260508050319 44 103 0.0 2.0 0.00 0.00 0.00 86 1015.3
20260508045319 44 112 0.0 2.0 0.00 0.00 0.00 86 1015.3
20260508044336 45 94 0.0 3.0 0.00 0.00 0.00 85 1015.2
20260508043316 45 0.0 0.0 0.00 0.00 0.00 84 1015.2
20260508042319 45 0.0 0.0 0.00 0.00 0.00 85 1015.3
20260508041319 45 157 1.0 4.0 0.00 0.00 0.00 85 1015.3
20260508040319 45 142 1.0 2.0 0.00 0.00 0.00 85 1015.3
20260508035317 44 0.0 0.0 0.00 0.00 0.00 85 1015.3
20260508034317 44 0.0 0.0 0.00 0.00 0.00 85 1015.2
20260508033318 45 132 0.0 0.0 0.00 0.00 0.00 85 1015.2
20260508032317 45 0.0 0.0 0.00 0.00 0.00 85 1015.3
20260508031318 45 134 1.0 3.0 0.00 0.00 0.00 84 1015.3
20260508030318 45 119 2.0 6.0 0.00 0.00 0.00 84 1015.3
20260508025318 45 181 1.0 4.0 0.00 0.00 0.00 84 1015.3
20260508024318 45 133 0.0 2.0 0.00 0.00 0.00 84 1015.3
20260508023318 45 110 2.0 4.0 0.00 0.00 0.00 84 1015.3
20260508022318 45 173 1.0 4.0 0.00 0.00 0.00 84 1015.2
20260508021319 46 143 1.0 3.0 0.00 0.00 0.00 83 1015.2
20260508020318 46 120 4.0 5.0 0.00 0.00 0.00 83 1015.2
20260508015319 46 121 3.0 5.0 0.00 0.00 0.00 83 1015.3
20260508014319 46 116 1.0 3.0 0.00 0.00 0.00 83 1015.3
20260508013317 46 122 1.0 4.0 0.00 0.00 0.00 82 1015.3
20260508012316 46 133 0.0 2.0 0.00 0.00 0.00 82 1015.3
20260508011317 47 127 0.0 1.0 0.00 0.00 0.00 81 1015.3
20260508010316 47 138 1.0 3.0 0.00 0.00 0.00 81 1015.2
20260508005320 47 142 0.0 1.0 0.00 0.00 0.00 81 1015.2
20260508004400 47 112 0.0 1.0 0.00 0.00 0.00 81 1015.2
20260508003317 48 134 0.0 3.0 0.00 0.00 0.00 81 1015.1
20260508002318 48 128 1.0 4.0 0.00 0.00 0.00 80 1015.2
20260508001317 48 164 0.0 0.0 0.00 0.00 0.00 80 1015.2
20260508000320 47 130 3.0 5.0 0.00 0.00 0.00 81 1015.3
20260507235318 47 131 2.0 5.0 0.00 0.00 0.00 82 1015.3
20260507234338 48 129 0.0 2.0 0.00 0.00 0.00 82 1015.4
20260507233318 48 0.0 0.0 0.00 0.00 0.00 82 1015.4
20260507232318 48 0.0 0.0 0.00 0.00 0.00 81 1015.4
20260507231319 49 0.0 0.0 0.00 0.00 0.00 80 1015.4
20260507230339 49 0.0 0.0 0.00 0.00 0.00 79 1015.4
20260507225316 49 150 0.0 2.0 0.00 0.00 0.00 79 1015.4
20260507224316 50 0.0 0.0 0.00 0.00 0.00 78 1015.4
20260507223319 50 0.0 0.0 0.00 0.00 0.00 78 1015.3
20260507222320 50 150 0.0 3.0 0.00 0.00 0.00 78 1015.3
20260507221340 50 0.0 0.0 0.00 0.00 0.00 78 1015.3
20260507220317 50 166 1.0 3.0 0.00 0.00 0.00 78 1015.3
20260507215337 50 0.0 0.0 0.00 0.00 0.00 78 1015.3
20260507214318 50 0.0 0.0 0.00 0.00 0.00 78 1015.3
20260507213317 50 174 1.0 3.0 0.00 0.00 0.00 79 1015.2
20260507212317 50 189 1.0 3.0 0.00 0.00 0.00 79 1015.3
20260507211318 50 0.0 0.0 0.00 0.00 0.00 79 1015.2
20260507210318 50 0.0 0.0 0.00 0.00 0.00 78 1015.2
20260507205318 50 0.0 0.0 0.00 0.00 0.00 78 1015.1
20260507204318 51 0.0 0.0 0.00 0.00 0.00 77 1015.0
20260507203318 51 0.0 0.0 0.00 0.00 0.00 76 1014.9
20260507202318 51 0.0 0.0 0.00 0.00 0.00 75 1014.8
20260507201319 51 0.0 0.0 0.00 0.00 0.00 74 1014.8
20260507200318 51 75 0.0 2.0 0.00 0.00 0.00 75 1014.6
20260507195319 52 0.0 0.0 0.00 0.00 0.00 73 1014.6
20260507194320 52 0.0 0.0 0.00 0.00 0.00 71 1014.5
20260507193316 52 0.0 0.0 0.00 0.00 0.00 71 1014.4
20260507192316 53 138 0.0 2.0 0.00 0.00 0.00 70 1014.3
20260507191319 53 200 2.0 4.0 0.00 0.00 0.00 68 1014.4
20260507190320 54 171 2.0 4.0 0.00 0.00 0.00 66 1014.3
20260507185317 54 213 2.0 4.0 0.00 0.00 0.00 66 1014.2
20260507184317 54 215 2.0 4.0 0.00 0.00 0.00 68 1014.2
20260507183317 55 216 2.0 4.0 0.00 0.00 0.00 67 1014.1
20260507182337 55 210 2.0 5.0 0.00 0.00 0.00 74 1014.1
20260507181317 55 0.0 0.0 0.00 0.00 0.00 78 1014.1
20260507180318 54 0.0 0.0 0.00 0.00 0.00 79 1014.1
20260507175318 54 118 1.0 3.0 0.00 0.00 0.00 78 1014.0
20260507174318 54 139 1.0 4.0 0.00 0.00 0.00 77 1014.1
20260507173318 55 94 1.0 3.0 0.00 0.00 0.00 76 1014.1
20260507172319 55 125 4.0 6.0 0.00 0.00 0.00 75 1014.1
20260507171316 56 197 2.0 4.0 0.00 0.00 0.00 71 1014.1
20260507170316 56 204 2.0 4.0 0.00 0.00 0.00 71 1014.0
20260507165319 56 220 4.0 6.0 0.00 0.00 0.00 69 1014.1
20260507164320 56 229 1.0 3.0 0.00 0.00 0.00 69 1014.1
20260507163339 55 198 0.0 3.0 0.00 0.00 0.00 72 1014.0
20260507162317 55 221 1.0 4.0 0.00 0.00 0.00 76 1014.1
20260507161317 54 206 0.0 2.0 0.00 0.00 0.00 78 1014.1
20260507160317 53 184 0.0 2.0 0.00 0.00 0.00 78 1014.1
20260507155317 54 314 0.0 2.0 0.00 0.00 0.00 78 1014.0
20260507154320 53 0.0 0.0 0.00 0.00 0.00 78 1014.1
20260507153317 54 0.0 0.0 0.00 0.00 0.00 77 1014.1
20260507152318 54 190 0.0 1.0 0.00 0.00 0.00 75 1014.1
20260507151337 55 285 0.0 2.0 0.00 0.00 0.00 71 1014.1
20260507150318 56 222 0.0 3.0 0.00 0.00 0.00 68 1014.1
20260507145339 56 154 1.0 6.0 0.00 0.00 0.00 67 1014.0
20260507144318 57 110 2.0 4.0 0.00 0.00 0.00 65 1014.0
20260507143318 57 134 0.0 2.0 0.00 0.00 0.00 63 1014.0
20260507142318 57 172 2.0 4.0 0.00 0.00 0.00 63 1014.2
20260507141319 57 168 2.0 5.0 0.00 0.00 0.00 64 1014.3
20260507140319 56 175 2.0 4.0 0.00 0.00 0.00 65 1014.4
20260507135319 56 153 1.0 3.0 0.00 0.00 0.00 64 1014.4
20260507134336 56 130 0.0 1.0 0.00 0.00 0.00 64 1014.4
20260507133316 56 177 0.0 2.0 0.00 0.00 0.00 64 1014.4
20260507132320 56 96 1.0 3.0 0.00 0.00 0.00 64 1014.4
20260507131319 57 117 3.0 6.0 0.00 0.00 0.00 64 1014.5
20260507130317 57 117 3.0 5.0 0.00 0.00 0.00 64 1014.5
20260507125317 57 115 3.0 4.0 0.00 0.00 0.00 62 1014.5
20260507124318 58 117 4.0 7.0 0.00 0.00 0.00 62 1014.4
20260507123357 58 159 2.0 5.0 0.00 0.00 0.00 60 1014.5
20260507122318 57 118 4.0 6.0 0.00 0.00 0.00 61 1014.6
20260507121317 57 107 3.0 6.0 0.00 0.00 0.00 62 1014.6
20260507120318 57 106 3.0 5.0 0.00 0.00 0.00 62 1014.7
20260507115318 57 172 3.0 5.0 0.00 0.00 0.00 62 1014.8
20260507114318 56 114 1.0 4.0 0.00 0.00 0.00 64 1014.8
20260507113318 56 165 0.0 2.0 0.00 0.00 0.00 65 1014.8
20260507112338 55 179 0.0 2.0 0.00 0.00 0.00 65 1014.8
20260507111319 55 109 2.0 4.0 0.00 0.00 0.00 67 1014.8
20260507110318 54 135 3.0 6.0 0.00 0.00 0.00 69 1014.8
20260507105319 53 119 1.0 4.0 0.00 0.00 0.00 70 1014.9
20260507104339 53 105 4.0 6.0 0.00 0.00 0.00 71 1014.9
20260507103319 52 119 3.0 4.0 0.00 0.00 0.00 71 1015.0
20260507102348 52 126 2.0 5.0 0.00 0.00 0.00 72 1015.1
20260507101328 51 130 0.0 1.0 0.00 0.00 0.00 73 1015.0
20260507100328 51 134 2.0 4.0 0.00 0.00 0.00 73 1015.0
20260507095329 51 116 1.0 3.0 0.00 0.00 0.00 74 1015.0
20260507094329 50 125 0.0 1.0 0.00 0.00 0.00 76 1014.9
20260507093329 50 126 2.0 3.0 0.00 0.00 0.00 77 1014.9
20260507092329 50 0.0 0.0 0.00 0.00 0.00 78 1014.9
20260507091329 49 105 2.0 5.0 0.00 0.00 0.00 78 1014.9
20260507090320 49 110 3.0 7.0 0.00 0.00 0.00 78 1014.9
20260507085350 49 116 2.0 4.0 0.00 0.00 0.00 77 1014.9
20260507084329 49 119 1.0 3.0 0.00 0.00 0.00 77 1014.9
20260507083330 49 121 2.0 3.0 0.00 0.00 0.00 77 1014.9
20260507082321 49 116 4.0 6.0 0.00 0.00 0.00 77 1014.8
20260507081321 49 94 2.0 4.0 0.00 0.00 0.00 77 1014.9